| time (UTC) | temp F | wind direction | speed MPH | gust MPH | rain 1hr in | rain 24hr in | rain mn in | humidity % | barometer mb |
| 20260901072027 | 66 | 35 | 1.0 | 2.0 | 0.00 | 0.00 | 0.00 | 89 | 1015.9 |
| 20260901071546 | 66 | 35 | 0.0 | 0.0 | 0.00 | 0.00 | 0.00 | 88 | 1015.8 |
| 20260901071019 | 66 | 36 | 0.0 | 0.0 | 0.00 | 0.00 | 0.00 | 88 | 1015.9 |
| 20260901070552 | 66 | 35 | 0.0 | 2.0 | 0.00 | 0.00 | 0.00 | 88 | 1015.8 |
| 20260901070031 | 66 | 38 | 0.0 | 2.0 | 0.00 | 0.00 | 0.00 | 88 | 1015.9 |
| 20260901065605 | 66 | 35 | 0.0 | 1.0 | 0.00 | 0.00 | 0.00 | 87 | 1015.9 |
| 20260901065522 | 66 | 35 | 0.0 | 1.0 | 0.00 | 0.00 | 0.00 | 87 | 1015.9 |
| 20260901065015 | 67 | 36 | 0.0 | 0.0 | 0.00 | 0.00 | 0.00 | 88 | 1015.9 |
| 20260901064537 | 67 | 36 | 0.0 | 0.0 | 0.00 | 0.00 | 0.00 | 88 | 1015.9 |
| 20260901064109 | 67 | 34 | 0.0 | 0.0 | 0.00 | 0.00 | 0.00 | 87 | 1015.9 |
| 20260901063521 | 67 | 35 | 0.0 | 0.0 | 0.00 | 0.00 | 0.00 | 87 | 1015.9 |
| 20260901063113 | 66 | 38 | 0.0 | 0.0 | 0.00 | 0.00 | 0.00 | 87 | 1015.8 |
| 20260901062604 | 67 | 35 | 0.0 | 0.0 | 0.00 | 0.00 | 0.00 | 86 | 1015.8 |
| 20260901062522 | 67 | 35 | 0.0 | 0.0 | 0.00 | 0.00 | 0.00 | 86 | 1015.8 |
| 20260901062015 | 67 | 35 | 0.0 | 0.0 | 0.00 | 0.00 | 0.00 | 85 | 1015.8 |
| 20260901061535 | 67 | 35 | 0.0 | 0.0 | 0.00 | 0.00 | 0.00 | 86 | 1015.8 |
| 20260901061047 | 67 | 36 | 0.0 | 0.0 | 0.00 | 0.00 | 0.00 | 86 | 1015.8 |
| 20260901060541 | 67 | 36 | 0.0 | 0.0 | 0.00 | 0.00 | 0.00 | 86 | 1015.7 |
| 20260901060112 | 67 | 36 | 0.0 | 0.0 | 0.00 | 0.00 | 0.00 | 86 | 1015.8 |
| 20260901060030 | 67 | 36 | 0.0 | 0.0 | 0.00 | 0.00 | 0.00 | 86 | 1015.8 |
| 20260901055543 | 67 | 35 | 0.0 | 0.0 | 0.00 | 0.00 | 0.00 | 85 | 1015.8 |
| 20260901055036 | 67 | 36 | 0.0 | 0.0 | 0.00 | 0.00 | 0.00 | 85 | 1015.8 |
| 20260901054558 | 67 | 36 | 0.0 | 0.0 | 0.00 | 0.00 | 0.00 | 86 | 1015.9 |
| 20260901054516 | 67 | 36 | 0.0 | 0.0 | 0.00 | 0.00 | 0.00 | 86 | 1015.9 |
| 20260901054111 | 67 | 35 | 0.0 | 2.0 | 0.00 | 0.00 | 0.00 | 85 | 1015.8 |
| 20260901054028 | 67 | 35 | 0.0 | 2.0 | 0.00 | 0.00 | 0.00 | 85 | 1015.8 |
| 20260901053521 | 67 | 35 | 1.0 | 2.0 | 0.00 | 0.00 | 0.00 | 85 | 1015.7 |
| 20260901053043 | 67 | 35 | 1.0 | 2.0 | 0.00 | 0.00 | 0.00 | 84 | 1015.7 |
| 20260901052536 | 68 | 36 | 0.0 | 0.0 | 0.00 | 0.00 | 0.00 | 84 | 1015.7 |
| 20260901052029 | 69 | 34 | 0.0 | 2.0 | 0.00 | 0.00 | 0.00 | 83 | 1015.6 |
| 20260901051527 | 69 | 32 | 1.0 | 2.0 | 0.00 | 0.00 | 0.00 | 84 | 1015.7 |
| 20260901051041 | 69 | 34 | 0.0 | 2.0 | 0.00 | 0.00 | 0.00 | 84 | 1015.7 |
| 20260901050532 | 69 | 34 | 1.0 | 4.0 | 0.00 | 0.00 | 0.00 | 84 | 1015.7 |
| 20260901050034 | 69 | 32 | 2.0 | 4.0 | 0.00 | 0.00 | 0.00 | 84 | 1015.7 |
| 20260901045549 | 69 | 34 | 2.0 | 3.0 | 0.00 | 0.00 | 0.00 | 83 | 1015.6 |
| 20260901045101 | 69 | 32 | 1.0 | 2.0 | 0.00 | 0.00 | 0.00 | 83 | 1015.7 |
| 20260901044611 | 69 | 35 | 0.0 | 3.0 | 0.00 | 0.00 | 0.00 | 83 | 1015.6 |
| 20260901044528 | 69 | 35 | 0.0 | 3.0 | 0.00 | 0.00 | 0.00 | 83 | 1015.6 |
| 20260901044042 | 69 | 34 | 1.0 | 3.0 | 0.00 | 0.00 | 0.00 | 84 | 1015.6 |
| 20260901043515 | 69 | 36 | 0.0 | 2.0 | 0.00 | 0.00 | 0.00 | 83 | 1015.5 |
| 20260901043035 | 69 | 36 | 1.0 | 3.0 | 0.00 | 0.00 | 0.00 | 84 | 1015.6 |
| 20260901042548 | 69 | 35 | 2.0 | 3.0 | 0.00 | 0.00 | 0.00 | 84 | 1015.5 |
| 20260901042101 | 69 | 36 | 2.0 | 3.0 | 0.00 | 0.00 | 0.00 | 84 | 1015.5 |
| 20260901041520 | 69 | 36 | 2.0 | 4.0 | 0.00 | 0.00 | 0.00 | 84 | 1015.6 |
| 20260901041114 | 69 | 34 | 2.0 | 4.0 | 0.00 | 0.00 | 0.00 | 84 | 1015.5 |
| 20260901040601 | 69 | 38 | 2.0 | 4.0 | 0.00 | 0.00 | 0.00 | 83 | 1015.5 |
| 20260901035554 | 69 | 34 | 2.0 | 4.0 | 0.00 | 0.00 | 0.00 | 84 | 1015.5 |
| 20260901035027 | 69 | 38 | 3.0 | 5.0 | 0.00 | 0.00 | 0.00 | 84 | 1015.3 |
| 20260901034547 | 69 | 34 | 3.0 | 5.0 | 0.00 | 0.00 | 0.00 | 84 | 1015.3 |
| 20260901034039 | 70 | 34 | 3.0 | 5.0 | 0.00 | 0.00 | 0.00 | 84 | 1015.2 |
| 20260901033532 | 70 | 36 | 2.0 | 5.0 | 0.00 | 0.00 | 0.00 | 84 | 1015.1 |
| 20260901033053 | 70 | 35 | 3.0 | 5.0 | 0.00 | 0.00 | 0.00 | 84 | 1015.1 |
| 20260901032605 | 70 | 35 | 4.0 | 5.0 | 0.00 | 0.00 | 0.00 | 83 | 1014.9 |
| 20260901032056 | 70 | 35 | 2.0 | 4.0 | 0.00 | 0.00 | 0.00 | 83 | 1014.9 |
| 20260901032014 | 70 | 35 | 2.0 | 4.0 | 0.00 | 0.00 | 0.00 | 83 | 1014.9 |
| 20260901031557 | 70 | 36 | 2.0 | 5.0 | 0.00 | 0.00 | 0.00 | 83 | 1014.8 |
| 20260901031514 | 70 | 36 | 2.0 | 5.0 | 0.00 | 0.00 | 0.00 | 83 | 1014.8 |
| 20260901031108 | 70 | 34 | 3.0 | 5.0 | 0.00 | 0.00 | 0.00 | 82 | 1014.7 |
| 20260901031026 | 70 | 34 | 3.0 | 5.0 | 0.00 | 0.00 | 0.00 | 82 | 1014.7 |
| 20260901030519 | 70 | 35 | 3.0 | 5.0 | 0.00 | 0.00 | 0.00 | 82 | 1014.7 |
| 20260901030041 | 70 | 36 | 3.0 | 5.0 | 0.00 | 0.00 | 0.00 | 82 | 1014.6 |
| 20260901025514 | 71 | 35 | 3.0 | 5.0 | 0.00 | 0.00 | 0.00 | 81 | 1014.6 |
| 20260901025029 | 71 | 35 | 4.0 | 7.0 | 0.00 | 0.00 | 0.00 | 81 | 1014.5 |
| 20260901024528 | 71 | 35 | 4.0 | 7.0 | 0.00 | 0.00 | 0.00 | 80 | 1014.4 |
| 20260901024041 | 71 | 35 | 4.0 | 7.0 | 0.00 | 0.00 | 0.00 | 79 | 1014.4 |
| 20260901023553 | 72 | 35 | 4.0 | 7.0 | 0.00 | 0.00 | 0.00 | 78 | 1014.4 |
| 20260901023030 | 72 | 38 | 5.0 | 9.0 | 0.00 | 0.00 | 0.00 | 77 | 1014.2 |
| 20260901022542 | 72 | 35 | 6.0 | 9.0 | 0.00 | 0.00 | 0.00 | 76 | 1014.3 |
| 20260901022037 | 72 | 35 | 4.0 | 8.0 | 0.00 | 0.00 | 0.00 | 74 | 1014.2 |
| 20260901021558 | 72 | 38 | 5.0 | 8.0 | 0.00 | 0.00 | 0.00 | 73 | 1014.1 |
| 20260901021515 | 72 | 38 | 5.0 | 8.0 | 0.00 | 0.00 | 0.00 | 73 | 1014.1 |
| 20260901021029 | 73 | 36 | 5.0 | 8.0 | 0.00 | 0.00 | 0.00 | 72 | 1014.0 |
| 20260901020542 | 74 | 35 | 4.0 | 6.0 | 0.00 | 0.00 | 0.00 | 71 | 1013.9 |
| 20260901020041 | 74 | 37 | 3.0 | 8.0 | 0.00 | 0.00 | 0.00 | 70 | 1013.9 |
| 20260901015533 | 74 | 35 | 4.0 | 7.0 | 0.00 | 0.00 | 0.00 | 70 | 1013.8 |
| 20260901015106 | 75 | 35 | 4.0 | 6.0 | 0.00 | 0.00 | 0.00 | 70 | 1013.8 |
| 20260901015023 | 75 | 35 | 4.0 | 6.0 | 0.00 | 0.00 | 0.00 | 70 | 1013.8 |
| 20260901014614 | 74 | 38 | 4.0 | 8.0 | 0.00 | 0.00 | 0.00 | 70 | 1013.8 |
| 20260901014046 | 74 | 36 | 4.0 | 8.0 | 0.00 | 0.00 | 0.00 | 70 | 1013.8 |
| 20260901013539 | 75 | 36 | 5.0 | 8.0 | 0.00 | 0.00 | 0.00 | 69 | 1013.9 |
| 20260901013100 | 75 | 35 | 4.0 | 8.0 | 0.00 | 0.00 | 0.00 | 69 | 1013.9 |
| 20260901013017 | 75 | 35 | 4.0 | 8.0 | 0.00 | 0.00 | 0.00 | 69 | 1013.9 |
| 20260901012611 | 75 | 36 | 5.0 | 9.0 | 0.00 | 0.00 | 0.00 | 67 | 1013.9 |
| 20260901012100 | 76 | 34 | 4.0 | 9.0 | 0.00 | 0.00 | 0.00 | 68 | 1013.9 |
| 20260901012017 | 76 | 34 | 4.0 | 9.0 | 0.00 | 0.00 | 0.00 | 68 | 1013.9 |
| 20260901011517 | 75 | 36 | 3.0 | 8.0 | 0.00 | 0.00 | 0.00 | 70 | 1014.0 |
| 20260901011014 | 75 | 36 | 5.0 | 11.0 | 0.00 | 0.00 | 0.00 | 71 | 1014.0 |
| 20260901010549 | 76 | 36 | 5.0 | 11.0 | 0.00 | 0.00 | 0.00 | 70 | 1014.0 |
| 20260901010108 | 76 | 35 | 6.0 | 11.0 | 0.00 | 0.00 | 0.00 | 71 | 1014.1 |
| 20260901010025 | 76 | 35 | 6.0 | 11.0 | 0.00 | 0.00 | 0.00 | 71 | 1014.1 |
| 20260901005538 | 75 | 35 | 4.0 | 10.0 | 0.00 | 0.00 | 0.00 | 71 | 1014.1 |
| 20260901005111 | 76 | 34 | 6.0 | 10.0 | 0.00 | 0.00 | 0.00 | 71 | 1014.2 |
| 20260901004527 | 75 | 32 | 6.0 | 11.0 | 0.00 | 0.00 | 0.00 | 71 | 1014.2 |
| 20260901004020 | 75 | 36 | 6.0 | 11.0 | 0.00 | 0.00 | 0.00 | 69 | 1014.2 |
| 20260901003518 | 75 | 32 | 6.0 | 12.0 | 0.00 | 0.00 | 0.00 | 69 | 1014.2 |
| 20260901003057 | 76 | 32 | 5.0 | 10.0 | 0.00 | 0.00 | 0.00 | 69 | 1014.2 |
| 20260901002549 | 76 | 32 | 7.0 | 11.0 | 0.00 | 0.00 | 0.00 | 70 | 1014.2 |
| 20260901002025 | 76 | 35 | 7.0 | 10.0 | 0.00 | 0.00 | 0.00 | 68 | 1014.1 |
| 20260901001613 | 77 | 34 | 6.0 | 10.0 | 0.00 | 0.00 | 0.00 | 67 | 1014.1 |
| 20260901001044 | 76 | 36 | 6.0 | 11.0 | 0.00 | 0.00 | 0.00 | 67 | 1014.2 |
| 20260901000521 | 77 | 34 | 7.0 | 11.0 | 0.00 | 0.00 | 0.00 | 67 | 1014.2 |
| 20260901000039 | 76 | 34 | 8.0 | 16.0 | 0.00 | 0.00 | 0.00 | 68 | 1014.2 |
| 20260831235611 | 76 | 35 | 7.0 | 16.0 | 0.00 | 0.00 | 0.00 | 71 | 1014.3 |
| 20260831235043 | 76 | 35 | 8.0 | 14.0 | 0.00 | 0.00 | 0.00 | 70 | 1014.3 |
| 20260831234606 | 77 | 32 | 8.0 | 14.0 | 0.00 | 0.00 | 0.00 | 69 | 1014.3 |
| 20260831234524 | 77 | 32 | 8.0 | 14.0 | 0.00 | 0.00 | 0.00 | 69 | 1014.3 |
| 20260831234037 | 77 | 35 | 8.0 | 12.0 | 0.00 | 0.00 | 0.00 | 68 | 1014.3 |
| 20260831233529 | 78 | 35 | 9.0 | 13.0 | 0.00 | 0.00 | 0.00 | 66 | 1014.4 |
| 20260831233048 | 78 | 36 | 8.0 | 13.0 | 0.00 | 0.00 | 0.00 | 67 | 1014.3 |
| 20260831232541 | 78 | 35 | 8.0 | 11.0 | 0.00 | 0.00 | 0.00 | 67 | 1014.2 |
| 20260831232035 | 77 | 36 | 5.0 | 14.0 | 0.00 | 0.00 | 0.00 | 69 | 1014.2 |
| 20260831231557 | 77 | 35 | 6.0 | 13.0 | 0.00 | 0.00 | 0.00 | 68 | 1014.2 |
| 20260831231109 | 77 | 36 | 10.0 | 12.0 | 0.00 | 0.00 | 0.00 | 67 | 1014.2 |
| 20260831230520 | 78 | 34 | 6.0 | 12.0 | 0.00 | 0.00 | 0.00 | 68 | 1014.2 |
| 20260831230112 | 77 | 34 | 7.0 | 11.0 | 0.00 | 0.00 | 0.00 | 67 | 1014.4 |
| 20260831225523 | 78 | 36 | 9.0 | 14.0 | 0.00 | 0.00 | 0.00 | 64 | 1014.4 |
| 20260831225017 | 77 | 35 | 7.0 | 14.0 | 0.00 | 0.00 | 0.00 | 63 | 1014.4 |
| 20260831224610 | 77 | 34 | 9.0 | 14.0 | 0.00 | 0.00 | 0.00 | 63 | 1014.4 |
| 20260831224528 | 77 | 34 | 9.0 | 14.0 | 0.00 | 0.00 | 0.00 | 63 | 1014.4 |
| 20260831224021 | 78 | 36 | 8.0 | 14.0 | 0.00 | 0.00 | 0.00 | 63 | 1014.5 |
| 20260831223555 | 78 | 36 | 10.0 | 14.0 | 0.00 | 0.00 | 0.00 | 65 | 1014.5 |
| 20260831223035 | 78 | 35 | 8.0 | 13.0 | 0.00 | 0.00 | 0.00 | 64 | 1014.6 |
| 20260831222527 | 78 | 35 | 9.0 | 14.0 | 0.00 | 0.00 | 0.00 | 65 | 1014.7 |
| 20260831222100 | 78 | 32 | 5.0 | 14.0 | 0.00 | 0.00 | 0.00 | 65 | 1014.7 |
| 20260831222017 | 78 | 32 | 5.0 | 14.0 | 0.00 | 0.00 | 0.00 | 65 | 1014.7 |
| 20260831221609 | 79 | 38 | 9.0 | 17.0 | 0.00 | 0.00 | 0.00 | 64 | 1014.7 |
| 20260831221021 | 78 | 35 | 10.0 | 17.0 | 0.00 | 0.00 | 0.00 | 64 | 1014.8 |
| 20260831220555 | 79 | 35 | 9.0 | 13.0 | 0.00 | 0.00 | 0.00 | 62 | 1014.8 |
| 20260831220512 | 79 | 35 | 9.0 | 13.0 | 0.00 | 0.00 | 0.00 | 62 | 1014.8 |
| 20260831220055 | 79 | 36 | 9.0 | 13.0 | 0.00 | 0.00 | 0.00 | 62 | 1014.8 |
| 20260831215607 | 80 | 34 | 9.0 | 13.0 | 0.00 | 0.00 | 0.00 | 62 | 1014.7 |
| 20260831215524 | 80 | 34 | 9.0 | 13.0 | 0.00 | 0.00 | 0.00 | 62 | 1014.7 |
| 20260831215037 | 79 | 34 | 7.0 | 16.0 | 0.00 | 0.00 | 0.00 | 65 | 1014.7 |
| 20260831214518 | 78 | 34 | 11.0 | 16.0 | 0.00 | 0.00 | 0.00 | 65 | 1014.7 |
| 20260831214111 | 79 | 35 | 6.0 | 17.0 | 0.00 | 0.00 | 0.00 | 65 | 1014.7 |
| 20260831213604 | 78 | 34 | 11.0 | 16.0 | 0.00 | 0.00 | 0.00 | 65 | 1014.8 |
| 20260831213522 | 78 | 34 | 11.0 | 16.0 | 0.00 | 0.00 | 0.00 | 65 | 1014.8 |
| 20260831213043 | 79 | 35 | 8.0 | 15.0 | 0.00 | 0.00 | 0.00 | 64 | 1014.9 |
| 20260831212535 | 79 | 35 | 10.0 | 15.0 | 0.00 | 0.00 | 0.00 | 64 | 1014.9 |
| 20260831212028 | 79 | 36 | 8.0 | 15.0 | 0.00 | 0.00 | 0.00 | 66 | 1014.9 |
| 20260831211547 | 78 | 36 | 7.0 | 15.0 | 0.00 | 0.00 | 0.00 | 67 | 1014.9 |
| 20260831211041 | 79 | 36 | 9.0 | 13.0 | 0.00 | 0.00 | 0.00 | 64 | 1015.0 |
| 20260831210535 | 79 | 36 | 9.0 | 14.0 | 0.00 | 0.00 | 0.00 | 65 | 1015.0 |
| 20260831210056 | 79 | 35 | 8.0 | 14.0 | 0.00 | 0.00 | 0.00 | 65 | 1015.1 |
| 20260831210013 | 79 | 35 | 8.0 | 14.0 | 0.00 | 0.00 | 0.00 | 65 | 1015.1 |
| 20260831205602 | 79 | 32 | 8.0 | 13.0 | 0.00 | 0.00 | 0.00 | 64 | 1015.2 |
| 20260831205113 | 79 | 36 | 10.0 | 14.0 | 0.00 | 0.00 | 0.00 | 63 | 1015.3 |
| 20260831204529 | 79 | 34 | 9.0 | 14.0 | 0.00 | 0.00 | 0.00 | 64 | 1015.3 |
| 20260831204021 | 79 | 36 | 9.0 | 15.0 | 0.00 | 0.00 | 0.00 | 62 | 1015.2 |
| 20260831203555 | 79 | 36 | 9.0 | 15.0 | 0.00 | 0.00 | 0.00 | 62 | 1015.2 |
| 20260831203057 | 79 | 34 | 7.0 | 15.0 | 0.00 | 0.00 | 0.00 | 62 | 1015.2 |
| 20260831202528 | 79 | 35 | 11.0 | 15.0 | 0.00 | 0.00 | 0.00 | 62 | 1015.3 |
| 20260831202022 | 79 | 34 | 8.0 | 15.0 | 0.00 | 0.00 | 0.00 | 62 | 1015.2 |
| 20260831201606 | 79 | 34 | 9.0 | 13.0 | 0.00 | 0.00 | 0.00 | 62 | 1015.2 |
| 20260831201524 | 79 | 34 | 9.0 | 13.0 | 0.00 | 0.00 | 0.00 | 62 | 1015.2 |
| 20260831201017 | 80 | 34 | 7.0 | 12.0 | 0.00 | 0.00 | 0.00 | 62 | 1015.3 |
| 20260831200514 | 80 | 35 | 7.0 | 12.0 | 0.00 | 0.00 | 0.00 | 62 | 1015.3 |
| 20260831200013 | 79 | 35 | 7.0 | 12.0 | 0.00 | 0.00 | 0.00 | 63 | 1015.3 |
| 20260831195602 | 79 | 36 | 6.0 | 13.0 | 0.00 | 0.00 | 0.00 | 64 | 1015.3 |
| 20260831195520 | 79 | 36 | 6.0 | 13.0 | 0.00 | 0.00 | 0.00 | 64 | 1015.3 |
| 20260831195013 | 80 | 35 | 6.0 | 13.0 | 0.00 | 0.00 | 0.00 | 64 | 1015.3 |
| 20260831194533 | 79 | 37 | 7.0 | 13.0 | 0.00 | 0.00 | 0.00 | 65 | 1015.3 |
| 20260831194106 | 79 | 36 | 8.0 | 12.0 | 0.00 | 0.00 | 0.00 | 64 | 1015.4 |
| 20260831194024 | 79 | 36 | 8.0 | 12.0 | 0.00 | 0.00 | 0.00 | 64 | 1015.4 |
| 20260831193518 | 79 | 35 | 7.0 | 11.0 | 0.00 | 0.00 | 0.00 | 65 | 1015.4 |
| 20260831193017 | 80 | 32 | 6.0 | 13.0 | 0.00 | 0.00 | 0.00 | 65 | 1015.5 |
| 20260831192514 | 78 | 34 | 9.0 | 13.0 | 0.00 | 0.00 | 0.00 | 67 | 1015.4 |
| 20260831192104 | 79 | 34 | 9.0 | 11.0 | 0.00 | 0.00 | 0.00 | 66 | 1015.4 |
| 20260831192022 | 79 | 34 | 9.0 | 11.0 | 0.00 | 0.00 | 0.00 | 66 | 1015.4 |
| 20260831191522 | 79 | 35 | 7.0 | 11.0 | 0.00 | 0.00 | 0.00 | 66 | 1015.5 |
| 20260831191021 | 79 | 37 | 6.0 | 10.0 | 0.00 | 0.00 | 0.00 | 66 | 1015.4 |
| 20260831190514 | 79 | 34 | 6.0 | 12.0 | 0.00 | 0.00 | 0.00 | 66 | 1015.5 |
| 20260831190035 | 79 | 36 | 6.0 | 12.0 | 0.00 | 0.00 | 0.00 | 68 | 1015.5 |
| 20260831185606 | 78 | 34 | 7.0 | 11.0 | 0.00 | 0.00 | 0.00 | 67 | 1015.5 |
| 20260831185524 | 78 | 34 | 7.0 | 11.0 | 0.00 | 0.00 | 0.00 | 67 | 1015.5 |
| 20260831185057 | 79 | 35 | 7.0 | 11.0 | 0.00 | 0.00 | 0.00 | 67 | 1015.4 |
| 20260831184553 | 79 | 34 | 7.0 | 13.0 | 0.00 | 0.00 | 0.00 | 66 | 1015.4 |
| 20260831184045 | 80 | 34 | 7.0 | 10.0 | 0.00 | 0.00 | 0.00 | 65 | 1015.5 |
| 20260831183540 | 79 | 35 | 6.0 | 12.0 | 0.00 | 0.00 | 0.00 | 66 | 1015.5 |
| 20260831183112 | 80 | 34 | 9.0 | 12.0 | 0.00 | 0.00 | 0.00 | 66 | 1015.5 |
| 20260831183030 | 80 | 34 | 9.0 | 12.0 | 0.00 | 0.00 | 0.00 | 66 | 1015.5 |
| 20260831182543 | 80 | 35 | 6.0 | 12.0 | 0.00 | 0.00 | 0.00 | 67 | 1015.5 |
| 20260831182055 | 80 | 35 | 6.0 | 14.0 | 0.00 | 0.00 | 0.00 | 67 | 1015.5 |
| 20260831181535 | 78 | 34 | 9.0 | 14.0 | 0.00 | 0.00 | 0.00 | 67 | 1015.5 |
| 20260831181107 | 79 | 35 | 6.0 | 11.0 | 0.00 | 0.00 | 0.00 | 67 | 1015.4 |
| 20260831180518 | 79 | 32 | 6.0 | 11.0 | 0.00 | 0.00 | 0.00 | 67 | 1015.4 |
| 20260831180111 | 79 | 34 | 4.0 | 9.0 | 0.00 | 0.00 | 0.00 | 67 | 1015.4 |
| 20260831175602 | 79 | 34 | 6.0 | 9.0 | 0.00 | 0.00 | 0.00 | 67 | 1015.4 |
| 20260831175014 | 79 | 32 | 3.0 | 9.0 | 0.00 | 0.00 | 0.00 | 67 | 1015.3 |
| 20260831174534 | 78 | 35 | 4.0 | 10.0 | 0.00 | 0.00 | 0.00 | 67 | 1015.4 |
| 20260831174048 | 79 | 36 | 5.0 | 10.0 | 0.00 | 0.00 | 0.00 | 67 | 1015.4 |
| 20260831173543 | 78 | 35 | 3.0 | 10.0 | 0.00 | 0.00 | 0.00 | 69 | 1015.4 |
| 20260831173043 | 77 | 36 | 5.0 | 10.0 | 0.00 | 0.00 | 0.00 | 69 | 1015.4 |
| 20260831172535 | 78 | 35 | 3.0 | 9.0 | 0.00 | 0.00 | 0.00 | 70 | 1015.4 |
| 20260831172106 | 77 | 35 | 3.0 | 8.0 | 0.00 | 0.00 | 0.00 | 71 | 1015.4 |
| 20260831172023 | 77 | 35 | 3.0 | 8.0 | 0.00 | 0.00 | 0.00 | 71 | 1015.4 |
| 20260831171605 | 77 | 34 | 4.0 | 8.0 | 0.00 | 0.00 | 0.00 | 70 | 1015.3 |
| 20260831171015 | 76 | 34 | 5.0 | 7.0 | 0.00 | 0.00 | 0.00 | 71 | 1015.3 |
| 20260831170528 | 77 | 35 | 2.0 | 5.0 | 0.00 | 0.00 | 0.00 | 70 | 1015.3 |
| 20260831170026 | 76 | 36 | 2.0 | 7.0 | 0.00 | 0.00 | 0.00 | 72 | 1015.3 |
| 20260831165519 | 76 | 35 | 5.0 | 7.0 | 0.00 | 0.00 | 0.00 | 72 | 1015.2 |
| 20260831165012 | 76 | 34 | 1.0 | 6.0 | 0.00 | 0.00 | 0.00 | 74 | 1015.3 |
| 20260831164555 | 75 | 35 | 1.0 | 6.0 | 0.00 | 0.00 | 0.00 | 74 | 1015.3 |
| 20260831164512 | 75 | 35 | 1.0 | 6.0 | 0.00 | 0.00 | 0.00 | 74 | 1015.3 |
| 20260831164047 | 74 | 35 | 2.0 | 6.0 | 0.00 | 0.00 | 0.00 | 74 | 1015.3 |
| 20260831163540 | 75 | 34 | 4.0 | 6.0 | 0.00 | 0.00 | 0.00 | 75 | 1015.1 |
| 20260831163102 | 74 | 35 | 1.0 | 5.0 | 0.00 | 0.00 | 0.00 | 75 | 1015.2 |
| 20260831162512 | 74 | 34 | 2.0 | 4.0 | 0.00 | 0.00 | 0.00 | 76 | 1015.1 |
| 20260831162105 | 74 | 36 | 2.0 | 4.0 | 0.00 | 0.00 | 0.00 | 77 | 1015.1 |
| 20260831161543 | 74 | 34 | 1.0 | 6.0 | 0.00 | 0.00 | 0.00 | 78 | 1015.1 |
| 20260831161015 | 73 | 35 | 1.0 | 6.0 | 0.00 | 0.00 | 0.00 | 79 | 1015.1 |
| 20260831160528 | 73 | 35 | 4.0 | 6.0 | 0.00 | 0.00 | 0.00 | 80 | 1015.1 |
| 20260831160049 | 72 | 32 | 4.0 | 6.0 | 0.00 | 0.00 | 0.00 | 80 | 1015.2 |
| 20260831155543 | 72 | 35 | 4.0 | 6.0 | 0.00 | 0.00 | 0.00 | 80 | 1015.2 |
| 20260831155035 | 72 | 35 | 2.0 | 3.0 | 0.00 | 0.00 | 0.00 | 80 | 1015.2 |
| 20260831154515 | 73 | 34 | 1.0 | 3.0 | 0.00 | 0.00 | 0.00 | 80 | 1015.2 |
| 20260831154110 | 72 | 35 | 0.0 | 2.0 | 0.00 | 0.00 | 0.00 | 81 | 1015.2 |
| 20260831154027 | 72 | 35 | 0.0 | 2.0 | 0.00 | 0.00 | 0.00 | 81 | 1015.2 |
| 20260831153520 | 72 | 35 | 0.0 | 1.0 | 0.00 | 0.00 | 0.00 | 81 | 1015.2 |
| 20260831153022 | 71 | 32 | 0.0 | 1.0 | 0.00 | 0.00 | 0.00 | 82 | 1015.1 |
| 20260831152617 | 71 | 36 | 0.0 | 3.0 | 0.00 | 0.00 | 0.00 | 83 | 1015.1 |
| 20260831152534 | 71 | 36 | 0.0 | 3.0 | 0.00 | 0.00 | 0.00 | 83 | 1015.1 |
| 20260831152050 | 71 | 34 | 1.0 | 4.0 | 0.00 | 0.00 | 0.00 | 83 | 1015.2 |
| 20260831151549 | 71 | 34 | 2.0 | 8.0 | 0.00 | 0.00 | 0.00 | 83 | 1015.1 |
| 20260831151041 | 71 | 36 | 3.0 | 8.0 | 0.00 | 0.00 | 0.00 | 83 | 1015.1 |
| 20260831150532 | 71 | 35 | 4.0 | 7.0 | 0.00 | 0.00 | 0.00 | 83 | 1015.1 |
| 20260831150053 | 71 | 36 | 3.0 | 7.0 | 0.00 | 0.00 | 0.00 | 83 | 1015.0 |
| 20260831145525 | 71 | 35 | 4.0 | 8.0 | 0.00 | 0.00 | 0.00 | 84 | 1015.0 |
| 20260831145037 | 71 | 34 | 2.0 | 6.0 | 0.00 | 0.00 | 0.00 | 84 | 1015.0 |
| 20260831144537 | 71 | 36 | 1.0 | 4.0 | 0.00 | 0.00 | 0.00 | 84 | 1014.9 |
| 20260831144109 | 71 | 35 | 3.0 | 5.0 | 0.00 | 0.00 | 0.00 | 84 | 1014.8 |
| 20260831143520 | 71 | 36 | 0.0 | 3.0 | 0.00 | 0.00 | 0.00 | 84 | 1014.8 |
| 20260831143020 | 71 | 35 | 1.0 | 3.0 | 0.00 | 0.00 | 0.00 | 84 | 1014.8 |
| 20260831142515 | 70 | 37 | 0.0 | 2.0 | 0.00 | 0.00 | 0.00 | 84 | 1014.8 |
| 20260831142029 | 70 | 34 | 1.0 | 2.0 | 0.00 | 0.00 | 0.00 | 84 | 1014.7 |
| 20260831141547 | 70 | 35 | 1.0 | 2.0 | 0.00 | 0.00 | 0.00 | 85 | 1014.6 |
| 20260831141041 | 70 | 34 | 0.0 | 2.0 | 0.00 | 0.00 | 0.00 | 85 | 1014.4 |
| 20260831140555 | 70 | 35 | 0.0 | 2.0 | 0.00 | 0.00 | 0.00 | 85 | 1014.4 |
| 20260831140054 | 70 | 36 | 0.0 | 2.0 | 0.00 | 0.00 | 0.00 | 86 | 1014.4 |
| 20260831135547 | 70 | 36 | 1.0 | 2.0 | 0.00 | 0.00 | 0.00 | 86 | 1014.2 |
| 20260831135040 | 70 | 36 | 0.0 | 2.0 | 0.00 | 0.00 | 0.00 | 86 | 1014.3 |
| 20260831134614 | 70 | 34 | 0.0 | 2.0 | 0.00 | 0.00 | 0.00 | 86 | 1014.2 |
| 20260831134531 | 70 | 34 | 0.0 | 2.0 | 0.00 | 0.00 | 0.00 | 86 | 1014.2 |
| 20260831134045 | 70 | 36 | 0.0 | 2.0 | 0.00 | 0.00 | 0.00 | 85 | 1014.1 |
| 20260831133617 | 70 | 36 | 1.0 | 2.0 | 0.00 | 0.00 | 0.00 | 86 | 1014.1 |
| 20260831133057 | 70 | 34 | 0.0 | 2.0 | 0.00 | 0.00 | 0.00 | 86 | 1014.0 |
| 20260831132528 | 70 | 38 | 0.0 | 2.0 | 0.00 | 0.00 | 0.00 | 86 | 1014.0 |
| 20260831132023 | 70 | 35 | 0.0 | 2.0 | 0.00 | 0.00 | 0.00 | 86 | 1013.9 |
| 20260831131523 | 70 | 35 | 0.0 | 2.0 | 0.00 | 0.00 | 0.00 | 87 | 1013.9 |
| 20260831131116 | 69 | 32 | 0.0 | 2.0 | 0.00 | 0.00 | 0.00 | 87 | 1013.9 |
| 20260831131034 | 69 | 32 | 0.0 | 2.0 | 0.00 | 0.00 | 0.00 | 87 | 1013.9 |
| 20260831130547 | 69 | 32 | 1.0 | 2.0 | 0.00 | 0.00 | 0.00 | 87 | 1013.9 |
| 20260831130109 | 69 | 35 | 0.0 | 0.0 | 0.00 | 0.00 | 0.00 | 87 | 1013.9 |
| 20260831125519 | 69 | 32 | 0.0 | 0.0 | 0.00 | 0.00 | 0.00 | 87 | 1013.9 |
| 20260831125112 | 69 | 34 | 0.0 | 1.0 | 0.00 | 0.00 | 0.00 | 87 | 1013.9 |
| 20260831124548 | 69 | 35 | 0.0 | 2.0 | 0.00 | 0.00 | 0.00 | 87 | 1013.9 |
| 20260831124102 | 69 | 35 | 1.0 | 2.0 | 0.00 | 0.00 | 0.00 | 87 | 1013.9 |
| 20260831124020 | 69 | 35 | 1.0 | 2.0 | 0.00 | 0.00 | 0.00 | 87 | 1013.9 |
| 20260831123609 | 69 | 35 | 1.0 | 2.0 | 0.00 | 0.00 | 0.00 | 87 | 1013.9 |
| 20260831123526 | 69 | 35 | 1.0 | 2.0 | 0.00 | 0.00 | 0.00 | 87 | 1013.9 |
| 20260831123047 | 69 | 35 | 0.0 | 2.0 | 0.00 | 0.00 | 0.00 | 88 | 1014.0 |
| 20260831122539 | 69 | 35 | 0.0 | 2.0 | 0.00 | 0.00 | 0.00 | 88 | 1013.8 |
| 20260831122051 | 69 | 34 | 0.0 | 3.0 | 0.00 | 0.00 | 0.00 | 88 | 1013.9 |
| 20260831121528 | 69 | 34 | 2.0 | 3.0 | 0.00 | 0.00 | 0.00 | 88 | 1013.9 |
| 20260831121101 | 69 | 35 | 1.0 | 3.0 | 0.00 | 0.00 | 0.00 | 89 | 1013.9 |
| 20260831121018 | 69 | 35 | 1.0 | 3.0 | 0.00 | 0.00 | 0.00 | 89 | 1013.9 |
| 20260831120532 | 69 | 35 | 2.0 | 3.0 | 0.00 | 0.00 | 0.00 | 89 | 1013.9 |
| 20260831120052 | 69 | 35 | 2.0 | 3.0 | 0.00 | 0.00 | 0.00 | 89 | 1013.9 |
| 20260831115524 | 69 | 35 | 0.0 | 3.0 | 0.00 | 0.00 | 0.00 | 89 | 1013.9 |
| 20260831115021 | 69 | 38 | 1.0 | 3.0 | 0.00 | 0.00 | 0.00 | 89 | 1013.8 |
| 20260831114559 | 69 | 35 | 2.0 | 3.0 | 0.00 | 0.00 | 0.00 | 89 | 1013.8 |
| 20260831114516 | 69 | 35 | 2.0 | 3.0 | 0.00 | 0.00 | 0.00 | 89 | 1013.8 |
| 20260831114035 | 69 | 36 | 1.0 | 4.0 | 0.00 | 0.00 | 0.00 | 89 | 1013.9 |
| 20260831113527 | 69 | 34 | 2.0 | 4.0 | 0.00 | 0.00 | 0.00 | 89 | 1013.9 |
| 20260831113028 | 69 | 35 | 1.0 | 3.0 | 0.00 | 0.00 | 0.00 | 89 | 1013.9 |
| 20260831112603 | 69 | 36 | 1.0 | 3.0 | 0.00 | 0.00 | 0.00 | 89 | 1013.9 |
| 20260831112520 | 69 | 36 | 1.0 | 3.0 | 0.00 | 0.00 | 0.00 | 89 | 1013.9 |
| 20260831112109 | 69 | 34 | 1.0 | 2.0 | 0.00 | 0.00 | 0.00 | 89 | 1013.9 |
| 20260831111609 | 69 | 35 | 1.0 | 2.0 | 0.00 | 0.00 | 0.00 | 89 | 1013.9 |
| 20260831111040 | 69 | 35 | 1.0 | 3.0 | 0.00 | 0.00 | 0.00 | 89 | 1014.0 |
| 20260831110531 | 69 | 34 | 0.0 | 3.0 | 0.00 | 0.00 | 0.00 | 88 | 1014.1 |
| 20260831110050 | 69 | 38 | 2.0 | 3.0 | 0.00 | 0.00 | 0.00 | 88 | 1014.0 |
| 20260831105523 | 69 | 34 | 2.0 | 4.0 | 0.00 | 0.00 | 0.00 | 88 | 1014.0 |
| 20260831105037 | 69 | 34 | 3.0 | 4.0 | 0.00 | 0.00 | 0.00 | 88 | 1014.0 |
| 20260831104537 | 69 | 34 | 0.0 | 2.0 | 0.00 | 0.00 | 0.00 | 88 | 1014.0 |
| 20260831104110 | 69 | 36 | 0.0 | 2.0 | 0.00 | 0.00 | 0.00 | 88 | 1014.1 |
| 20260831104027 | 69 | 36 | 0.0 | 2.0 | 0.00 | 0.00 | 0.00 | 88 | 1014.1 |
| 20260831103601 | 69 | 35 | 1.0 | 3.0 | 0.00 | 0.00 | 0.00 | 88 | 1014.1 |
| 20260831103101 | 69 | 35 | 1.0 | 4.0 | 0.00 | 0.00 | 0.00 | 88 | 1014.1 |
| 20260831102613 | 69 | 35 | 2.0 | 4.0 | 0.00 | 0.00 | 0.00 | 88 | 1014.0 |
| 20260831102104 | 69 | 32 | 1.0 | 4.0 | 0.00 | 0.00 | 0.00 | 88 | 1014.1 |
| 20260831102022 | 69 | 32 | 1.0 | 4.0 | 0.00 | 0.00 | 0.00 | 88 | 1014.1 |
| 20260831101522 | 69 | 35 | 2.0 | 5.0 | 0.00 | 0.00 | 0.00 | 88 | 1014.1 |
| 20260831101036 | 69 | 35 | 3.0 | 5.0 | 0.00 | 0.00 | 0.00 | 88 | 1014.0 |
| 20260831100608 | 69 | 32 | 2.0 | 5.0 | 0.00 | 0.00 | 0.00 | 87 | 1014.0 |
| 20260831100045 | 70 | 36 | 2.0 | 5.0 | 0.00 | 0.00 | 0.00 | 87 | 1014.0 |
| 20260831095538 | 69 | 34 | 2.0 | 4.0 | 0.00 | 0.00 | 0.00 | 87 | 1014.0 |
| 20260831095111 | 69 | 36 | 3.0 | 4.0 | 0.00 | 0.00 | 0.00 | 87 | 1014.0 |
| 20260831094544 | 70 | 38 | 2.0 | 5.0 | 0.00 | 0.00 | 0.00 | 87 | 1014.0 |
| 20260831094021 | 69 | 35 | 3.0 | 5.0 | 0.00 | 0.00 | 0.00 | 87 | 1014.0 |
| 20260831093515 | 70 | 36 | 2.0 | 5.0 | 0.00 | 0.00 | 0.00 | 87 | 1014.0 |
| 20260831093055 | 70 | 37 | 2.0 | 4.0 | 0.00 | 0.00 | 0.00 | 88 | 1014.1 |
| 20260831092549 | 69 | 34 | 3.0 | 4.0 | 0.00 | 0.00 | 0.00 | 88 | 1014.1 |
| 20260831092021 | 69 | 38 | 3.0 | 4.0 | 0.00 | 0.00 | 0.00 | 88 | 1014.0 |
| 20260831091521 | 69 | 32 | 2.0 | 5.0 | 0.00 | 0.00 | 0.00 | 88 | 1014.1 |
| 20260831091054 | 69 | 36 | 4.0 | 5.0 | 0.00 | 0.00 | 0.00 | 88 | 1014.0 |
| 20260831090546 | 70 | 35 | 1.0 | 5.0 | 0.00 | 0.00 | 0.00 | 88 | 1014.1 |
| 20260831090104 | 69 | 35 | 2.0 | 6.0 | 0.00 | 0.00 | 0.00 | 89 | 1014.1 |
| 20260831090022 | 69 | 35 | 2.0 | 6.0 | 0.00 | 0.00 | 0.00 | 89 | 1014.1 |
| 20260831085535 | 69 | 34 | 4.0 | 6.0 | 0.00 | 0.00 | 0.00 | 89 | 1014.1 |
| 20260831085108 | 69 | 34 | 3.0 | 5.0 | 0.00 | 0.00 | 0.00 | 89 | 1014.1 |
| 20260831084607 | 69 | 35 | 4.0 | 5.0 | 0.00 | 0.00 | 0.00 | 89 | 1014.1 |
| 20260831084038 | 69 | 36 | 1.0 | 3.0 | 0.00 | 0.00 | 0.00 | 89 | 1014.1 |
| 20260831083552 | 69 | 36 | 2.0 | 4.0 | 0.00 | 0.00 | 0.00 | 89 | 1014.1 |
| 20260831083031 | 69 | 38 | 3.0 | 5.0 | 0.00 | 0.00 | 0.00 | 89 | 1014.1 |
| 20260831082604 | 69 | 35 | 1.0 | 4.0 | 0.00 | 0.00 | 0.00 | 89 | 1014.1 |
| 20260831082522 | 69 | 35 | 1.0 | 4.0 | 0.00 | 0.00 | 0.00 | 89 | 1014.1 |
| 20260831082035 | 69 | 35 | 1.0 | 4.0 | 0.00 | 0.00 | 0.00 | 89 | 1014.1 |
| 20260831081515 | 69 | 38 | 1.0 | 3.0 | 0.00 | 0.00 | 0.00 | 88 | 1014.1 |
| 20260831081029 | 69 | 35 | 0.0 | 3.0 | 0.00 | 0.00 | 0.00 | 89 | 1014.1 |
| 20260831080542 | 69 | 35 | 1.0 | 3.0 | 0.00 | 0.00 | 0.00 | 89 | 1014.1 |
| 20260831080104 | 69 | 35 | 0.0 | 0.0 | 0.00 | 0.00 | 0.00 | 88 | 1014.2 |
| 20260831075536 | 69 | 36 | 0.0 | 0.0 | 0.00 | 0.00 | 0.00 | 89 | 1014.3 |
| 20260831075030 | 69 | 34 | 0.0 | 0.0 | 0.00 | 0.00 | 0.00 | 88 | 1014.3 |
| 20260831074529 | 68 | 34 | 0.0 | 0.0 | 0.00 | 0.00 | 0.00 | 88 | 1014.2 |
| 20260831074022 | 68 | 36 | 0.0 | 0.0 | 0.00 | 0.00 | 0.00 | 88 | 1014.2 |
| 20260831073521 | 69 | 35 | 0.0 | 0.0 | 0.00 | 0.00 | 0.00 | 88 | 1014.2 |
| 20260831073021 | 69 | 37 | 0.0 | 0.0 | 0.00 | 0.00 | 0.00 | 88 | 1014.2 |
| 20260831072555 | 69 | 34 | 0.0 | 0.0 | 0.00 | 0.00 | 0.00 | 89 | 1014.1 |